This is the latest recevied weather packets stored in our database for station/object YO4CIL-MG. If no packets are shown the sender has not sent any weather packets the latest 1 day(s).
| Time | Temp. | Humidity | Pressure | Rain* | Wind** | Luminosity | Snow |
|---|---|---|---|---|---|---|---|
| 1778040925 | 10.56° C | 63% | 1016.7 hPa | - | - | - | - |
| 1778040325 | 10° C | 63% | 1016.6 hPa | - | - | - | - |
| 1778039725 | 9.44° C | 64% | 1016.6 hPa | - | - | - | - |
| 1778039125 | 8.89° C | 64% | 1016.6 hPa | - | - | - | - |
| 1778038525 | 8.33° C | 65% | 1016.4 hPa | - | - | - | - |
| 1778037925 | 8.89° C | 65% | 1016.3 hPa | - | - | - | - |
| 1778037325 | 8.89° C | 63% | 1016.3 hPa | - | - | - | - |
| 1778036725 | 8.33° C | 63% | 1016.1 hPa | - | - | - | - |
| 1778036125 | 8.33° C | 65% | 1016 hPa | - | - | - | - |
| 1778035525 | 7.78° C | 65% | 1015.8 hPa | - | - | - | - |
| 1778034925 | 8.33° C | 64% | 1015.7 hPa | - | - | - | - |
| 1778034325 | 7.78° C | 65% | 1015.7 hPa | - | - | - | - |
| 1778033725 | 8.33° C | 65% | 1015.6 hPa | - | - | - | - |
| 1778033125 | 8.33° C | 64% | 1015.6 hPa | - | - | - | - |
| 1778032525 | 8.33° C | 64% | 1015.6 hPa | - | - | - | - |
| 1778031925 | 8.33° C | 64% | 1015.5 hPa | - | - | - | - |
| 1778031325 | 8.33° C | 65% | 1015.5 hPa | - | - | - | - |
| 1778030725 | 8.33° C | 66% | 1015.6 hPa | - | - | - | - |
| 1778030125 | 7.78° C | 67% | 1015.7 hPa | - | - | - | - |
| 1778029525 | 8.33° C | 67% | 1015.6 hPa | - | - | - | - |
| 1778028925 | 8.33° C | 68% | 1015.8 hPa | - | - | - | - |
| 1778028325 | 8.33° C | 68% | 1015.7 hPa | - | - | - | - |
| 1778027725 | 8.33° C | 68% | 1015.7 hPa | - | - | - | - |
| 1778027125 | 8.33° C | 69% | 1015.8 hPa | - | - | - | - |
| 1778026525 | 8.33° C | 69% | 1015.8 hPa | - | - | - | - |
* Rain since midnight (hover to see other rain measurements)
** Current wind speed in m/s (hover to see current wind gust speed)